Regional Weather Roundup
Issued by NWS Grand Forks, ND

Home | Current Version | Previous Version | Graphics & Text | Print | Product List | Glossary On
Versions: 1 2 3 4 5 6 7 8 9 10 11 12 13 14 15 16 17 18 19 20 21 22 23 24 25 26 27 28 29 30 31 32 33 34 35 36 37 38 39 40 41 42 43 44 45 46 47 48 49 50
000
ASUS43 KFGF 141810
RWRFGF
PRAIRIE TO PINES  WEATHER ROUNDUP
NATIONAL WEATHER SERVICE EASTERN NORTH DAKOTA/GRAND FORKS ND
1200 PM CST THU DEC 14 2017

 **SATELLITE DATA USED TO AUGMENT SKY COVER AT AUTOMATED STATIONS**
 *****  WEATHER ACROSS EASTERN NORTH DAKOTA  *****

CITY           SKY/WX    TMP DP  RH WIND       PRES   REMARKS
GRAND FORKS    CLOUDY    21  17  84 N14       30.08S WCI   8
6HR MIN TEMP:  19; 6HR MAX TEMP:  23; 6HR PCP: TRACE;

GRAND FRKS AFB CLOUDY    21  17  81 N10       30.08S WCI  10
DEVILS LAKE    FLURRIES  25  21  85 N10       30.07F WCI  15
6HR MIN TEMP:  22; 6HR MAX TEMP:  25; 6HR PCP: TRACE;

FARGO          CLOUDY    25  20  81 N13       30.07F WCI  14
WAHPETON ARPT  CLOUDY    25  19  80 NW12      30.08S WCI  14
$$

 ***** WEATHER ACROSS CENTRAL AND WESTERN NORTH DAKOTA  *****

CITY           SKY/WX    TMP DP  RH WIND       PRES   REMARKS
BISMARCK       PTSUNNY   34  25  69 N17G28    30.14R WCI  23
6HR MIN TEMP:  32; 6HR MAX TEMP:  35; 6HR PCP: TRACE;

MINOT          CLOUDY    33  24  69 NW18      30.12S WCI  22
6HR MIN TEMP:  30; 6HR MAX TEMP:  33;

JAMESTOWN      CLOUDY    26  23  88 N10       30.08R WCI  16
6HR MIN TEMP:  25; 6HR MAX TEMP:  28; 6HR PCP: TRACE;

MINOT AFB      MIX PCPN  32  25  74 NW14      30.10F WCI  22
GARRISON         N/A     33  22  63 NW22      30.13S WCI  21
WILLISTON      CLOUDY    34  25  69 NW18      30.20S WCI  23
6HR MIN TEMP:  31; 6HR MAX TEMP:  34;

DICKINSON      CLOUDY    32  25  75 NW21G28   30.16R WCI  20
6HR MIN TEMP:  30; 6HR MAX TEMP:  32; 6HR PCP: TRACE;

HETTINGER      CLOUDY    33  23  66 NW21G29   30.19R WCI  21
6HR MIN TEMP:  31; 6HR MAX TEMP:  33; 6HR PCP: TRACE;

$$

 *****  OTHER AIRPORT OBSERVATIONS IN OUR AREA  *****

CITY           SKY/WX    TMP DP  RH WIND       PRES   REMARKS
WALHALLA       FLURRIES  19  19 100 N10G16    30.08F WCI   8
GRAFTON AIRPOR CLOUDY    19  16  86 N17       30.10F WCI   4
VALLEY CITY AR MIX PCPN  25  25 100 N16       30.09R WCI  12
CANDO          CLOUDY    27  27 100 N5        30.08F WCI  21
CAVALIER APRT  CLOUDY    18  14  86 N10G18    30.08F WCI   6
GWINNER          N/A     25  25 100 N7        30.07F WCI  17
SHEYENNE NWR     N/A     25  25  99 N5        29.95S WCI  19
ROLLA          FLURRIES  25  23  93 NW20G25   30.05S WCI  11
 ***** THE ABOVE OBSERVATIONS ARE NON NWS ARE NOT QUALITY
       CONTROLLED AND MAY MIS-REPORT RAIN FOR SNOW...
$$

  *****  WEATHER ACROSS NORTHERN MINNESOTA  *****

CITY           SKY/WX    TMP DP  RH WIND       PRES   REMARKS
FLAG ISLAND    FLURRIES  10   7  85 NW12      29.97F WCI  -4
WARROAD        LGT SNOW  12   9  85 NW8       30.01F WCI   1
ROSEAU         LGT SNOW  14   9  79 NW10      30.02S WCI   1
HALLOCK        CLOUDY    16  12  86 N13       30.07F WCI   2
THF RVR FALLS  LGT SNOW  16  12  86 NW20      30.04S FOG     WCI  -1
BAUDETTE       PTSUNNY   10   6  84 NW10      29.97F WCI  -4
6HR MIN TEMP:   9; 6HR MAX TEMP:  12; 6HR PCP: TRACE;

WASKISH        FLURRIES  14  10  85 NW8       29.99S WCI   3
CROOKSTON      CLOUDY    19  16  86 N15       30.08S WCI   5
STEPHEN NDAWN    N/A     18  12  79 N12         N/A  WCI   5
GREENBUSH NDAW   N/A     12   9  85 N14         N/A  WCI  -3
$$
  *****  WEATHER ACROSS CENTRAL AND WEST MINNESOTA  *****

CITY           SKY/WX    TMP DP  RH WIND       PRES   REMARKS
FOSSTON        LGT SNOW  18  12  79 NW13      30.01F WCI   4
BEMIDJI        LGT SNOW  16  12  85 NW12      29.98S WCI   3
6HR MIN TEMP:  12; 6HR MAX TEMP:  16;

PARK RAPIDS    LGT SNOW  19  13  77 NW10      29.98F WCI   7
6HR MIN TEMP:  13; 6HR MAX TEMP:  19; 6HR PCP: TRACE;

ELBOW LAKE     FLURRIES  21  19  92 NW10      30.05S WCI  10
6HR MIN TEMP:  17; 6HR MAX TEMP:  21;

WADENA         LGT SNOW  19  16  86 W7        30.00F WCI  10
DETROIT LAKES  FLURRIES  21  18  86 NW13      30.03S WCI   9
MOORHEAD       CLOUDY    23  18  80 N12       30.08S WCI  12
FERGUS FALLS   FLURRIES  21  19  93 NW10      30.08F WCI  10
MORRIS MN      CLOUDY    25  19  80 NW8       30.04F WCI  16
STAPLES        LGT SNOW  18  14  86 NW6       30.00F WCI   9
$$
  *****  WEATHER ELSEWHERE ACROSS MINNESOTA  *****

CITY           SKY/WX    TMP DP  RH WIND       PRES   REMARKS
DULUTH         LGT SNOW  16  10  77 W12       29.93F WCI   3
6HR MIN TEMP:  14; 6HR MAX TEMP:  16; 6HR PCP: TRACE;

INTRNTL FALLS  CLOUDY    14   7  73 W9        29.95F HAZE    WCI   2
6HR MIN TEMP:  10; 6HR MAX TEMP:  15; 6HR PCP:  0.01;

ELY            FLURRIES  14   9  79 W6        29.91F WCI   5
CLOQUET        LGT SNOW  16  10  79 W6        29.95F WCI   7
WHEATON        LGT SNOW  25  19  80 NW7       30.09F WCI  17
BRAINERD       LGT SNOW  18  12  77 W9        30.00F WCI   7
6HR MIN TEMP:  15; 6HR MAX TEMP:  18; 6HR PCP: TRACE;

HIBBING        LGT SNOW  13   7  77 NW9       29.94F WCI   1
6HR MIN TEMP:  11; 6HR MAX TEMP:  14; 6HR PCP: TRACE;

ALEXANDRIA     CLOUDY    21  16  81 NW10      30.02F WCI  10
6HR MIN TEMP:  15; 6HR MAX TEMP:  21; 6HR PCP: TRACE;

SAINT CLOUD    LGT SNOW  20  16  84 NW6       30.02F FOG     WCI  12
6HR MIN TEMP:  15; 6HR MAX TEMP:  20; 6HR PCP:  0.01;

MINNEAPOLIS    CLOUDY    21  16  81 W6        30.04F WCI  13
6HR MIN TEMP:  15; 6HR MAX TEMP:  21; 6HR PCP: TRACE;

$$

  *****  WEATHER ACROSS SOUTH DAKOTA  *****

CITY           SKY/WX    TMP DP  RH WIND       PRES   REMARKS
SIOUX FALLS    CLOUDY    35  27  72 NW7       30.04F
6HR MIN TEMP:  28; 6HR MAX TEMP:  36; 6HR PCP: TRACE;

BROOKINGS      MIX PCPN  31  27  85 N8        30.02F WCI  23
WATERTOWN      FLURRIES  30  28  92 NW8       30.01S WCI  22
6HR MIN TEMP:  27; 6HR MAX TEMP:  30; 6HR PCP: TRACE;

HURON          CLOUDY    34  29  82 NW14      30.06S WCI  25
6HR MIN TEMP:  26; 6HR MAX TEMP:  34; 6HR PCP: TRACE;

SISSETON         N/A     26  24  92 N10       30.07R WCI  16
ABERDEEN       CLOUDY    33  31  92 N13       30.07S WCI  24
6HR MIN TEMP:  25; 6HR MAX TEMP:  33; 6HR PCP: TRACE;

MITCHELL       CLOUDY    36  28  73 W9        30.07F
PIERRE         CLOUDY    34  32  92 N20       30.11R WCI  23
6HR MIN TEMP:  34; 6HR MAX TEMP:  37; 6HR PCP:  0.01;

MOBRIDGE       CLOUDY    35  29  78 N20       30.08S WCI  24
RAPID CITY     LGT SNOW  33  24  69 NW30G44   30.19R WCI  19
6HR MIN TEMP:  33; 6HR MAX TEMP:  37; 6HR PCP: TRACE;

$$

  *****  SOME WEATHER IN NEARBY STATES *****

CITY           SKY/WX    TMP DP  RH WIND       PRES   REMARKS
GLASGOW MT     FAIR      35  25  66 W12       30.26F
6HR MIN TEMP:  30; 6HR MAX TEMP:  35;

GREAT FALLS MT FAIR      36  23  59 SW17      30.29F
6HR MIN TEMP:  23; 6HR MAX TEMP:  36;

CHEYENNE WY    SNOW      25  23  92 N18G32    30.20S VSB 1/2 WCI  11
6HR MIN TEMP:  25; 6HR MAX TEMP:  30; 6HR PCP:  0.01;

SCOTTSBLUFF NE FLURRIES  33  23  66 N26G41    30.22R WCI  20
6HR MIN TEMP:  33; 6HR MAX TEMP:  40; 6HR PCP: TRACE;

OMAHA NE       CLOUDY    40  25  55 NW10      30.06F
6HR MIN TEMP:  33; 6HR MAX TEMP:  41;

DES MOINES IA  PTSUNNY   32  18  56 NE6       30.07F
6HR MIN TEMP:  26; 6HR MAX TEMP:  32;

DAVENPORT IA   FAIR      25  15  66 VRB3      30.10F
6HR MIN TEMP:  20; 6HR MAX TEMP:  26;

CHICAGO IL     PTSUNNY   26  10  50 NW7       30.06F WCI  18
6HR MIN TEMP:  16; 6HR MAX TEMP:  26;

EAU CLAIRE WI  CLOUDY    21  15  78 SW10      30.02F WCI  10
6HR MIN TEMP:  10; 6HR MAX TEMP:  21; 6HR PCP: TRACE;

LA CROSSE WI   FAIR      24  15  68 S8        30.06F WCI  15
6HR MIN TEMP:   7; 6HR MAX TEMP:  24;

$$

  *****  SOME NATIONAL WEATHER *****

CITY           SKY/WX    TMP DP  RH WIND       PRES   REMARKS
LA GUARDIA NY  FAIR      32  17  54 NW17      29.76R WCI  21
6HR MIN TEMP:  27; 6HR MAX TEMP:  32; 6HR PCP:  0.02;

RALEIGH NC     FAIR      55  24  30 W13G18    29.85F
6HR MIN TEMP:  30; 6HR MAX TEMP:  55;

ATLANTA GA     PTSUNNY   55  33  43 SW7       29.92F
6HR MIN TEMP:  38; 6HR MAX TEMP:  55;

NEW ORLEANS LA PTSUNNY   65  47  52 W5        30.00F
6HR MIN TEMP:  42; 6HR MAX TEMP:  65;

OKLAHOMA CITY  FAIR      47  27  45 N13       30.17F
6HR MIN TEMP:  41; 6HR MAX TEMP:  48;

ALBUQUERQUE NM PTSUNNY   43  13  29 E29G38    30.15R
6HR MIN TEMP:  26; 6HR MAX TEMP:  43;

SALT LAKE CITY FAIR      33  27  78 SE5       30.46R
6HR MIN TEMP:  25; 6HR MAX TEMP:  33;

LOS ANGELES CA FAIR      65  38  36 VRB3      30.04R
6HR MIN TEMP:  49; 6HR



USA.gov is the U.S. government's official web portal to all federal, state and local government web resources and services.